| time (UTC) | temp F | wind direction | speed MPH | gust MPH | rain 1hr in | rain 24hr in | rain mn in | humidity % | barometer mb |
| 20260505210041 | 48 | 233 | 0.0 | 5.0 | 0.00 | 0.00 | 0.00 | 82 | 1015.6 |
| 20260505204541 | 48 | 0 | 1.0 | 5.0 | 0.00 | 0.00 | 0.00 | 80 | 1015.5 |
| 20260505203031 | 48 | 0 | 0.0 | 3.0 | 0.00 | 0.00 | 0.00 | 79 | 1015.5 |
| 20260505201533 | 48 | 0 | 1.0 | 10.0 | 0.00 | 0.00 | 0.00 | 78 | 1015.4 |
| 20260505200030 | 48 | 147 | 2.0 | 10.0 | 0.00 | 0.00 | 0.00 | 76 | 1015.2 |
| 20260505194534 | 49 | 161 | 1.0 | 8.0 | 0.00 | 0.00 | 0.00 | 75 | 1015.1 |
| 20260505193031 | 49 | 134 | 0.0 | 7.0 | 0.00 | 0.00 | 0.00 | 77 | 1015.1 |
| 20260505191535 | 50 | 175 | 2.0 | 12.0 | 0.00 | 0.00 | 0.00 | 79 | 1014.9 |
| 20260505190031 | 50 | 221 | 3.0 | 10.0 | 0.00 | 0.00 | 0.00 | 79 | 1014.8 |
| 20260505184539 | 51 | 174 | 2.0 | 7.0 | 0.00 | 0.00 | 0.00 | 78 | 1014.8 |
| 20260505183033 | 51 | 0 | 1.0 | 8.0 | 0.00 | 0.00 | 0.00 | 77 | 1014.5 |
| 20260505181539 | 51 | 97 | 2.0 | 11.0 | 0.00 | 0.00 | 0.00 | 75 | 1014.6 |
| 20260505180033 | 52 | 98 | 2.0 | 10.0 | 0.00 | 0.00 | 0.00 | 75 | 1014.6 |
| 20260505174537 | 53 | 165 | 2.0 | 8.0 | 0.00 | 0.00 | 0.00 | 73 | 1014.4 |
| 20260505173032 | 54 | 139 | 2.0 | 10.0 | 0.00 | 0.00 | 0.00 | 74 | 1014.3 |
| 20260505171539 | 56 | 25 | 2.0 | 10.0 | 0.00 | 0.00 | 0.00 | 72 | 1014.1 |
| 20260505170034 | 57 | 268 | 1.0 | 11.0 | 0.00 | 0.00 | 0.00 | 69 | 1013.9 |
| 20260505164534 | 58 | 317 | 1.0 | 6.0 | 0.00 | 0.00 | 0.00 | 62 | 1013.8 |
| 20260505163030 | 58 | 56 | 1.0 | 6.0 | 0.00 | 0.00 | 0.00 | 61 | 1013.8 |
| 20260505161530 | 58 | 331 | 2.0 | 8.0 | 0.00 | 0.00 | 0.00 | 61 | 1013.8 |
| 20260505153040 | 59 | 152 | 2.0 | 8.0 | 0.00 | 0.00 | 0.00 | 59 | 1013.8 |
| 20260505151531 | 59 | 0 | 1.0 | 6.0 | 0.00 | 0.00 | 0.00 | 60 | 1013.8 |
| 20260505124532 | 58 | 316 | 2.0 | 9.0 | 0.00 | 0.00 | 0.00 | 66 | 1013.9 |
| 20260505123045 | 58 | 295 | 2.0 | 7.0 | 0.00 | 0.00 | 0.00 | 64 | 1014.1 |
| 20260505121535 | 59 | 280 | 3.0 | 8.0 | 0.00 | 0.00 | 0.00 | 63 | 1013.9 |
| 20260505120037 | 59 | 285 | 2.0 | 9.0 | 0.00 | 0.00 | 0.00 | 62 | 1013.9 |
| 20260505114531 | 59 | 14 | 4.0 | 12.0 | 0.00 | 0.00 | 0.00 | 65 | 1013.9 |
| 20260505113033 | 59 | 318 | 2.0 | 8.0 | 0.00 | 0.00 | 0.00 | 66 | 1013.9 |
| 20260505111535 | 59 | 252 | 2.0 | 9.0 | 0.00 | 0.00 | 0.00 | 64 | 1014.0 |
| 20260505101531 | 58 | 331 | 2.0 | 8.0 | 0.00 | 0.00 | 0.00 | 69 | 1014.0 |
| 20260505100034 | 58 | 258 | 2.0 | 9.0 | 0.00 | 0.00 | 0.00 | 73 | 1014.4 |
| 20260505094532 | 56 | 339 | 2.0 | 8.0 | 0.00 | 0.00 | 0.00 | 73 | 1014.4 |
| 20260505093031 | 56 | 360 | 2.0 | 8.0 | 0.00 | 0.00 | 0.00 | 76 | 1014.4 |
| 20260505091533 | 54 | 316 | 3.0 | 10.0 | 0.00 | 0.00 | 0.00 | 78 | 1014.6 |
| 20260505090036 | 55 | 298 | 1.0 | 6.0 | 0.00 | 0.00 | 0.00 | 78 | 1014.7 |
| 20260505084536 | 53 | 355 | 1.0 | 7.0 | 0.00 | 0.00 | 0.00 | 79 | 1014.7 |
| 20260505083032 | 51 | 317 | 2.0 | 4.0 | 0.00 | 0.00 | 0.00 | 85 | 1014.7 |
| 20260505081532 | 50 | 306 | 1.0 | 7.0 | 0.00 | 0.00 | 0.00 | 85 | 1014.7 |
| 20260505080034 | 49 | 285 | 3.0 | 5.0 | 0.00 | 0.00 | 0.00 | 87 | 1014.6 |
| 20260505074534 | 49 | 350 | 1.0 | 4.0 | 0.00 | 0.00 | 0.00 | 89 | 1014.6 |
| 20260505073035 | 48 | 0 | 2.0 | 5.0 | 0.00 | 0.00 | 0.00 | 91 | 1014.5 |
| 20260505071532 | 48 | 332 | 2.0 | 5.0 | 0.00 | 0.00 | 0.00 | 95 | 1014.6 |
| 20260505070034 | 47 | 294 | 3.0 | 5.0 | 0.00 | 0.00 | 0.00 | 96 | 1014.7 |
| 20260505064544 | 47 | 322 | 1.0 | 3.0 | 0.00 | 0.00 | 0.00 | 98 | 1014.9 |
| 20260505063034 | 46 | 334 | 0.0 | 3.0 | 0.00 | 0.00 | 0.00 | 98 | 1014.8 |
| 20260505061532 | 45 | 0 | 0.0 | 2.0 | 0.00 | 0.00 | 0.00 | 98 | 1014.9 |
| 20260505060030 | 44 | 299 | 0.0 | 2.0 | 0.00 | 0.00 | 0.00 | 98 | 1015.0 |
| 20260505054544 | 42 | 298 | 1.0 | 3.0 | 0.00 | 0.00 | 0.00 | 98 | 1014.9 |
| 20260505053029 | 41 | 0 | 0.0 | 1.0 | 0.00 | 0.00 | 0.00 | 97 | 1014.8 |
| 20260505051532 | 40 | 0 | 0.0 | 0.0 | 0.00 | 0.00 | 0.00 | 97 | 1014.7 |
| 20260505041532 | 39 | 0 | 0.0 | 1.0 | 0.00 | 0.00 | 0.00 | 96 | 1014.5 |
| 20260505040034 | 39 | 0 | 0.0 | 0.0 | 0.00 | 0.00 | 0.00 | 95 | 1014.5 |
| 20260505034538 | 39 | 0 | 0.0 | 1.0 | 0.00 | 0.00 | 0.00 | 95 | 1014.4 |
| 20260505033032 | 39 | 0 | 0.0 | 0.0 | 0.00 | 0.00 | 0.00 | 95 | 1014.4 |
| 20260505031530 | 40 | 0 | 0.0 | 0.0 | 0.00 | 0.00 | 0.00 | 95 | 1014.6 |
| 20260505030045 | 40 | 0 | 0.0 | 0.0 | 0.00 | 0.00 | 0.00 | 95 | 1014.6 |
| 20260505024531 | 41 | 0 | 0.0 | 0.0 | 0.00 | 0.00 | 0.00 | 95 | 1014.7 |
| 20260505023039 | 41 | 0 | 0.0 | 0.0 | 0.00 | 0.00 | 0.00 | 95 | 1014.7 |
| 20260505021534 | 42 | 0 | 0.0 | 0.0 | 0.00 | 0.00 | 0.00 | 95 | 1014.7 |
| 20260505020030 | 42 | 0 | 0.0 | 1.0 | 0.00 | 0.00 | 0.00 | 96 | 1015.0 |
| 20260505014539 | 42 | 0 | 0.0 | 0.0 | 0.00 | 0.00 | 0.00 | 96 | 1015.2 |
| 20260505013038 | 42 | 0 | 0.0 | 0.0 | 0.00 | 0.00 | 0.00 | 96 | 1015.2 |
| 20260505011532 | 41 | 0 | 0.0 | 0.0 | 0.00 | 0.00 | 0.00 | 96 | 1015.4 |
| 20260505010034 | 41 | 0 | 0.0 | 0.0 | 0.00 | 0.00 | 0.00 | 95 | 1015.2 |
| 20260505004553 | 41 | 0 | 0.0 | 0.0 | 0.00 | 0.00 | 0.00 | 94 | 1015.4 |
| 20260505003032 | 41 | 0 | 0.0 | 0.0 | 0.00 | 0.00 | 0.00 | 94 | 1015.6 |
| 20260505001537 | 42 | 0 | 0.0 | 1.0 | 0.00 | 0.00 | 0.00 | 93 | 1015.7 |
| 20260505000036 | 42 | 0 | 0.0 | 0.0 | 0.00 | 0.00 | 0.00 | 93 | 1015.7 |
| 20260504234531 | 43 | 0 | 0.0 | 1.0 | 0.00 | 0.00 | 0.00 | 93 | 1015.8 |
| 20260504233032 | 44 | 0 | 0.0 | 0.0 | 0.00 | 0.00 | 0.00 | 93 | 1015.9 |
| 20260504231530 | 44 | 0 | 0.0 | 0.0 | 0.00 | 0.00 | 0.00 | 92 | 1015.8 |
| 20260504230034 | 45 | 0 | 0.0 | 0.0 | 0.00 | 0.00 | 0.00 | 92 | 1015.8 |
| 20260504224534 | 46 | 0 | 0.0 | 2.0 | 0.00 | 0.00 | 0.00 | 92 | 1015.7 |
| 20260504223031 | 47 | 0 | 0.0 | 0.0 | 0.00 | 0.00 | 0.00 | 91 | 1015.8 |
| 20260504221537 | 48 | 0 | 0.0 | 1.0 | 0.00 | 0.00 | 0.00 | 91 | 1015.9 |
| 20260504220034 | 49 | 0 | 0.0 | 1.0 | 0.00 | 0.00 | 0.00 | 91 | 1016.1 |
| 20260504214531 | 49 | 0 | 0.0 | 0.0 | 0.00 | 0.00 | 0.00 | 92 | 1016.1 |
| 20260504213038 | 50 | 0 | 0.0 | 0.0 | 0.00 | 0.00 | 0.00 | 91 | 1016.1 |
| 20260504211535 | 50 | 0 | 0.0 | 0.0 | 0.00 | 0.00 | 0.00 | 91 | 1016.2 |